This is the latest recevied weather packets stored in our database for station/object KX4O-13. If no packets are shown the sender has not sent any weather packets the latest 10 day(s).
| Time | Temp. | Humidity | Pressure | Rain* | Wind** | Luminosity | Snow |
|---|---|---|---|---|---|---|---|
| 1777934454 | 22.78° C | 40% | 1009.8 hPa | 0 mm | - | 60 W/m² | - |
| 1777934154 | 22.78° C | 40% | 1009.8 hPa | 0 mm | - | 193 W/m² | - |
| 1777933854 | 23.33° C | 39% | 1009.8 hPa | 0 mm | - | 250 W/m² | - |
| 1777933554 | 23.33° C | 39% | 1009.7 hPa | 0 mm | - | 271 W/m² | - |
| 1777933254 | 23.33° C | 39% | 1009.6 hPa | 0 mm | - | 285 W/m² | - |
| 1777932954 | 23.33° C | 39% | 1009.7 hPa | 0 mm | - | 308 W/m² | - |
| 1777932656 | 23.33° C | 40% | 1009.6 hPa | 0 mm | - | 315 W/m² | - |
| 1777932354 | 23.33° C | 39% | 1009.6 hPa | 0 mm | - | 329 W/m² | - |
| 1777932054 | 23.33° C | 39% | 1009.6 hPa | 0 mm | - | 346 W/m² | - |
| 1777931754 | 23.33° C | 37% | 1009.7 hPa | 0 mm | - | 364 W/m² | - |
| 1777931454 | 23.89° C | 37% | 1009.6 hPa | 0 mm | - | 388 W/m² | - |
| 1777931154 | 23.89° C | 37% | 1009.6 hPa | 0 mm | - | 401 W/m² | - |
| 1777930854 | 23.89° C | 39% | 1009.7 hPa | 0 mm | - | 408 W/m² | - |
| 1777930554 | 23.89° C | 37% | 1009.7 hPa | 0 mm | - | 427 W/m² | - |
| 1777930256 | 23.89° C | 37% | 1009.7 hPa | 0 mm | - | 459 W/m² | - |
| 1777929954 | 23.89° C | 36% | 1009.6 hPa | 0 mm | - | 459 W/m² | - |
| 1777929654 | 23.89° C | 36% | 1009.5 hPa | 0 mm | - | 476 W/m² | - |
| 1777929354 | 23.89° C | 37% | 1009.6 hPa | 0 mm | - | 490 W/m² | - |
| 1777929054 | 23.89° C | 36% | 1009.5 hPa | 0 mm | - | 508 W/m² | - |
| 1777928754 | 23.89° C | 37% | 1009.5 hPa | 0 mm | - | 520 W/m² | - |
| 1777928454 | 24.44° C | 35% | 1009.5 hPa | 0 mm | - | 531 W/m² | - |
| 1777928154 | 25° C | 36% | 1009.6 hPa | 0 mm | - | 601 W/m² | - |
| 1777927856 | 24.44° C | 38% | 1009.5 hPa | 0 mm | - | 652 W/m² | - |
| 1777927554 | 23.89° C | 35% | 1009.5 hPa | 0 mm | - | 635 W/m² | - |
| 1777927254 | 23.89° C | 37% | 1009.7 hPa | 0 mm | - | 613 W/m² | - |
* Rain latest hour (hover to see other rain measurements)
** Current wind speed in m/s (hover to see current wind gust speed)